Tracking 27419 objects as of 9-Jun-2023
HD Live streaming from Space Station
objects crossing your sky now

DELTA 1 DEB

Track DELTA 1 DEB now!
10-day predictions


NORAD ID: 7058
Int'l Code: 1973-086BA
Perigee: 1,447.3 km
Apogee: 1,464.1 km
Inclination: 101.7 °
Period: 114.8 minutes
Semi major axis: 7826 km
RCS: 0.0607 m2 (small)
Launch date: November 6, 1973
Source: United States (US)
Launch site: AIR FORCE WESTERN TEST RANGE (AFWTR)

Note: This is SATELLITE DEBRIS
Your satellite tracking list
Your tracking list is empty




NASA's NSSDC Master Catalog

Two Line Element Set (TLE):
1 07058U 73086BA  23159.51712906  .00000686  00000-0  45662-2 0  9990
2 07058 101.7356 137.5384 0010715  55.6846  63.7096 12.53817185260655
Source of the keplerian elements: AFSPC